Location: Cluj-Napoca
(46.7712°N, 23.6236°E)
Time: 12:16:42
(UTC+03:00)

ISS - Visible Passes

Search period start: 26 September 2017 00:00
Search period end: 06 October 2017 00:00
Orbit: 401 x 407 km, 51.6° (Epoch: 26 September)

Date Brightness Start Highest point End Pass type
(mag) Time Alt. Az. Time Alt. Az. Time Alt. Az.
26 Sep -1.9 19:53:39 10° S 19:55:31 14° SE 19:57:10 11° ESE visible
26 Sep -2.0 21:28:16 10° WSW 21:29:51 26° WSW 21:29:51 26° WSW visible
27 Sep -3.6 20:36:04 10° SW 20:39:14 49° SSE 20:40:01 39° ESE visible
27 Sep -0.4 22:12:37 10° W 22:12:41 10° W 22:12:41 10° W visible
28 Sep -2.8 19:44:06 10° SSW 19:46:59 29° SE 19:49:52 10° E visible
28 Sep -2.8 21:20:05 10° W 21:22:41 46° WNW 21:22:41 46° WNW visible
29 Sep -3.9 20:27:37 10° WSW 20:30:53 85° NNW 20:32:33 27° ENE visible
29 Sep -0.6 22:04:35 10° WNW 22:05:12 14° WNW 22:05:12 14° WNW visible
30 Sep -3.7 19:35:18 10° SW 19:38:31 59° SSE 19:41:46 10° ENE visible
30 Sep -2.7 21:11:59 10° W 21:14:57 40° NNW 21:14:57 40° NNW visible
01 Oct -3.2 20:19:23 10° W 20:22:36 51° NNW 20:24:38 20° NE visible
01 Oct -0.7 21:56:28 10° WNW 21:57:16 15° WNW 21:57:16 15° WNW visible
02 Oct -3.7 19:26:51 10° WSW 19:30:07 74° NNW 19:33:24 10° ENE visible
02 Oct -2.5 21:03:53 10° WNW 21:06:53 34° N 21:06:53 34° N visible
03 Oct -2.7 20:11:14 10° W 20:14:20 38° N 20:16:26 17° NE visible
03 Oct -0.8 21:48:10 10° WNW 21:49:05 17° NW 21:49:05 17° NW visible
04 Oct -2.6 20:55:39 10° WNW 20:58:36 33° N 20:58:36 33° N visible
05 Oct -2.6 20:03:03 10° WNW 20:06:04 33° N 20:08:07 17° NE visible
05 Oct -0.9 21:39:44 10° WNW 21:40:45 18° NW 21:40:45 18° NW visible
